(68170) = 2001 BS32 = 1975 XS6 = 1999 RW243 = 1995 OE9

Discovered at Socorro on 2001-01-20 by LINEAR.

Orbit

Orbit type: Main Belt

Note: WebGL enabled browser required.

epoch2022-01-21.0
epoch JD2459600.5
perihelion date2021-02-14.49004
perihelion JD2459259.99004
argument of perihelion (°)295.87759
ascending node (°)146.80784
inclination (°)9.50953
eccentricity0.2607774
perihelion distance (AU)1.8891028
Tisserand w.r.t. Jupiter3.4
ΔV w.r.t. Earth (km/sec)9.1
semimajor axis (AU)2.5555265
mean anomaly (°)82.15104
mean daily motion (°/day)0.24125890
aphelion distance (AU)3.222
period (years)4.09
P-vector [x]0.12054829
P-vector [y]0.95965067
P-vector [z]0.25404469
Q-vector [x]-0.98857869
Q-vector [y]0.09273352
Q-vector [z]0.11879675
absolute magnitude15.45
phase slope0.15
uncertainty0
referenceMPO 692776
observations used1196
oppositions19
arc length (days)16957
first opposition used1975
last opposition used2022
residual rms (arc-secs)0.69
perturbers coarse indicatorM-v
perturbers precise indicator003Ek
first observation date used1975-12-06.0
last observation date used2022-05-10.0
computer namePan
JD of orbit computation2456937.541799
perihelion JD uncertainty (days)2.4604E-05
argument of perihelion uncertainty (°)2.3311E-05
ascending node uncertainty (°)2.2364E-05
inclination uncertainty (°)3.7890E-06
eccentricity uncertainty 4.0720E-08
perihelion distance uncertainty (AU)1.0497E-07
Minimum Orbit Intersection Distances (in AU)
for orbit epoch: 2459200.5, reference: E2021-B10
Mercury1.59039
Venus1.18326
Earth0.92725
Mars0.38643
Jupiter2.0911
Saturn6.88336
Uranus15.6548
Neptune27.1178

Observations

1229 total observations over interval: 1975 12 06.10477 – 2022 06 02.256319
These data are available for download (format description).

Date (UT) J2000 RA J2000 Dec Magn Location Ref
1975 12 06.10477 02 47 54.48 -02 00 51.7 17.2   809 – European Southern Observatory, La Silla MPC 4498
1975 12 06.14286 02 47 53.37 -02 00 43.7   809 – European Southern Observatory, La Silla MPC 4498
1975 12 07.12627 02 47 29.36 -01 57 21.0   809 – European Southern Observatory, La Silla MPC 4498
1975 12 07.18168 02 47 28.00 -01 57 10.3   809 – European Southern Observatory, La Silla MPC 4498
1995 07 27.29684 22 34 09.01 -08 24 33.2   691 – Steward Observatory, Kitt Peak-Spacewatch MPC 25609
1995 07 27.31789 22 34 08.44 -08 24 41.0 19.8 V 691 – Steward Observatory, Kitt Peak-Spacewatch MPC 25609
1995 07 27.33920 22 34 07.84 -08 24 48.2   691 – Steward Observatory, Kitt Peak-Spacewatch MPC 25609
1995 08 03.35530 22 30 32.70 -09 09 06.1 19.9 V 691 – Steward Observatory, Kitt Peak-Spacewatch MPC 25609
1995 08 03.37984 22 30 31.78 -09 09 16.1   691 – Steward Observatory, Kitt Peak-Spacewatch MPC 25609
1995 08 03.41314 22 30 30.54 -09 09 29.7   691 – Steward Observatory, Kitt Peak-Spacewatch MPC 25609
1999 09 05.20806 21 19 23.65 -15 22 37.4 19.5 V 691 – Steward Observatory, Kitt Peak-Spacewatch MPS 16510
1999 09 05.22963 21 19 22.65 -15 22 46.6 19.4 V 691 – Steward Observatory, Kitt Peak-Spacewatch MPS 16510
1999 09 05.25121 21 19 21.69 -15 22 55.3 19.5 V 691 – Steward Observatory, Kitt Peak-Spacewatch MPS 16510
1999 09 13.14617 21 14 10.03 -16 13 13.1 19.8 V 691 – Steward Observatory, Kitt Peak-Spacewatch MPS 16510
1999 09 13.16798 21 14 09.23 -16 13 21.1 19.8 V 691 – Steward Observatory, Kitt Peak-Spacewatch MPS 16510
1999 09 13.18977 21 14 08.44 -16 13 28.6 19.6 V 691 – Steward Observatory, Kitt Peak-Spacewatch MPS 16510
2000 12 28.44975 10 18 58.24 +05 54 40.4 18.9   704 – Lincoln Laboratory ETS, New Mexico MPS 25707
2000 12 28.46479 10 18 58.59 +05 54 41.7 19.5   704 – Lincoln Laboratory ETS, New Mexico MPS 25707
2000 12 28.47983 10 18 58.81 +05 54 45.2 18.9   704 – Lincoln Laboratory ETS, New Mexico MPS 25707
2000 12 28.49488 10 18 59.11 +05 54 46.1 18.7   704 – Lincoln Laboratory ETS, New Mexico MPS 25707
2000 12 28.51006 10 18 59.35 +05 54 49.5 19.1   704 – Lincoln Laboratory ETS, New Mexico MPS 25707
2001 01 20.37935 10 17 26.77 +07 51 53.7 18.4   704 – Lincoln Laboratory ETS, New Mexico MPS 25707
2001 01 20.39525 10 17 26.33 +07 52 01.8 18.9   704 – Lincoln Laboratory ETS, New Mexico MPS 25707
2001 01 20.41044 10 17 25.84 +07 52 09.2 19.1   704 – Lincoln Laboratory ETS, New Mexico MPS 25707
2001 01 20.42665 10 17 25.39 +07 52 16.5 18.9   704 – Lincoln Laboratory ETS, New Mexico MPS 25707
2001 01 20.44257 10 17 24.95 +07 52 23.7 18.5   704 – Lincoln Laboratory ETS, New Mexico MPS 25707
2001 01 21.01483 10 17 10.00 +07 57 04.4   946 – Ametlla de Mar MPS 25707
2001 01 21.05218 10 17 08.81 +07 57 23.5   946 – Ametlla de Mar MPS 25707
2001 01 21.05836 10 17 08.61 +07 57 26.5 18.2 R 946 – Ametlla de Mar MPS 25707
2001 01 21.38363 10 16 59.61 +08 00 09.1 18.4   704 – Lincoln Laboratory ETS, New Mexico MPS 25707
2001 01 21.39866 10 16 59.13 +08 00 16.5 18.6   704 – Lincoln Laboratory ETS, New Mexico MPS 25707
2001 01 21.41369 10 16 58.70 +08 00 23.8 18.4   704 – Lincoln Laboratory ETS, New Mexico MPS 25707
2001 01 21.42870 10 16 58.21 +08 00 31.3 18.9   704 – Lincoln Laboratory ETS, New Mexico MPS 25707
2001 01 21.44372 10 16 57.77 +08 00 38.5 18.5   704 – Lincoln Laboratory ETS, New Mexico MPS 25707
2001 01 21.99934 10 16 42.42 +08 05 18.9 18.1 R 620 – Observatorio Astronomico de Mallorca MPS 25707
2001 01 22.11146 10 16 38.85 +08 06 14.2   620 – Observatorio Astronomico de Mallorca MPS 25707
2001 01 22.12051 10 16 38.45 +08 06 19.7   620 – Observatorio Astronomico de Mallorca MPS 25707
2001 01 29.30888 10 12 27.93 +09 12 49.3 17.5   704 – Lincoln Laboratory ETS, New Mexico MPS 25707
2001 01 29.33869 10 12 26.66 +09 13 07.3 17.8   704 – Lincoln Laboratory ETS, New Mexico MPS 25707
2001 01 29.35363 10 12 26.04 +09 13 16.3 17.6   704 – Lincoln Laboratory ETS, New Mexico MPS 25707
2001 01 29.36854 10 12 25.24 +09 13 25.4 18.3   704 – Lincoln Laboratory ETS, New Mexico MPS 25707
2001 01 31.32556 10 11 04.51 +09 33 07.8 18.0   704 – Lincoln Laboratory ETS, New Mexico MPS 25707
2001 01 31.34049 10 11 03.72 +09 33 16.3 18.0   704 – Lincoln Laboratory ETS, New Mexico MPS 25707
2001 01 31.35541 10 11 03.10 +09 33 25.8 17.8   704 – Lincoln Laboratory ETS, New Mexico MPS 25707
2001 01 31.37033 10 11 02.42 +09 33 35.1 17.9   704 – Lincoln Laboratory ETS, New Mexico MPS 25707
2001 01 31.38525 10 11 01.74 +09 33 44.0 17.7   704 – Lincoln Laboratory ETS, New Mexico MPS 25707
2001 02 01.97196 10 09 52.86 +09 50 06.9 17.5   106 – Crni Vrh MPS 25707
2001 02 01.98862 10 09 52.08 +09 50 16.2 17.6   106 – Crni Vrh MPS 25707
2001 02 02.00530 10 09 51.24 +09 50 26.6 17.7   106 – Crni Vrh MPS 25707
2001 02 02.43242 10 09 32.00 +09 54 56.3 18.2 V 691 – Steward Observatory, Kitt Peak-Spacewatch MPS 25707
2001 02 02.45406 10 09 30.98 +09 55 10.0 18.2 V 691 – Steward Observatory, Kitt Peak-Spacewatch MPS 25707
2001 02 02.47516 10 09 29.99 +09 55 23.1 18.3 V 691 – Steward Observatory, Kitt Peak-Spacewatch MPS 25707
2001 02 19.30626 09 55 36.58 +12 58 16.9 17.2   704 – Lincoln Laboratory ETS, New Mexico MPS 26828
2001 02 19.32056 09 55 35.80 +12 58 26.0 18.8   704 – Lincoln Laboratory ETS, New Mexico MPS 26828
2001 02 19.33486 09 55 35.08 +12 58 35.6 17.7   704 – Lincoln Laboratory ETS, New Mexico MPS 26828
2001 02 19.34939 09 55 34.31 +12 58 44.6 18.0   704 – Lincoln Laboratory ETS, New Mexico MPS 26828
2001 02 19.36369 09 55 33.55 +12 58 54.1 17.7   704 – Lincoln Laboratory ETS, New Mexico MPS 26828
2001 02 21.21472 09 54 01.87 +13 18 26.6 17.9 R 699 – Lowell Observatory-LONEOS MPS 26828
2001 02 21.25214 09 53 59.94 +13 18 50.5   699 – Lowell Observatory-LONEOS MPS 26828
2001 02 21.28965 09 53 58.07 +13 19 14.6   699 – Lowell Observatory-LONEOS MPS 26828
2001 02 21.32725 09 53 56.03 +13 19 37.4   699 – Lowell Observatory-LONEOS MPS 26828
2001 02 22.24625 09 53 11.28 +13 29 11.5 17.2   704 – Lincoln Laboratory ETS, New Mexico MPS 26828
2001 02 22.26027 09 53 10.56 +13 29 20.4 17.7   704 – Lincoln Laboratory ETS, New Mexico MPS 26828
2001 02 22.27500 09 53 09.81 +13 29 29.3 17.8   704 – Lincoln Laboratory ETS, New Mexico MPS 26828
2001 02 22.28901 09 53 09.08 +13 29 37.7 18.0   704 – Lincoln Laboratory ETS, New Mexico MPS 26828
2001 02 22.30397 09 53 08.32 +13 29 47.8 17.8   704 – Lincoln Laboratory ETS, New Mexico MPS 26828
2001 02 27.28729 09 49 16.31 +14 19 33.2 18.2 V 691 – Steward Observatory, Kitt Peak-Spacewatch MPS 26828
2001 02 27.29483 09 49 15.95 +14 19 37.5 18.2 V 691 – Steward Observatory, Kitt Peak-Spacewatch MPS 26828
2001 02 27.30291 09 49 15.57 +14 19 42.2 18.3 V 691 – Steward Observatory, Kitt Peak-Spacewatch MPS 26828
2001 03 14.16723 09 40 45.51 +16 20 12.9 18.1 R 699 – Lowell Observatory-LONEOS MPS 27935
2001 03 14.20004 09 40 44.66 +16 20 25.8   699 – Lowell Observatory-LONEOS MPS 27935
2001 03 14.23307 09 40 43.86 +16 20 38.4   699 – Lowell Observatory-LONEOS MPS 27935
2001 03 14.26582 09 40 43.02 +16 20 51.2   699 – Lowell Observatory-LONEOS MPS 27935
2001 03 18.18662 09 39 27.43 +16 44 21.2 18.6   704 – Lincoln Laboratory ETS, New Mexico MPS 27935
2001 03 18.19996 09 39 27.13 +16 44 25.1 19.1   704 – Lincoln Laboratory ETS, New Mexico MPS 27935
2001 03 18.21283 09 39 26.93 +16 44 30.1 19.1   704 – Lincoln Laboratory ETS, New Mexico MPS 27935
2001 03 18.22571 09 39 26.64 +16 44 34.2 18.9   704 – Lincoln Laboratory ETS, New Mexico MPS 27935
2001 03 18.23859 09 39 26.41 +16 44 38.8 18.8   704 – Lincoln Laboratory ETS, New Mexico MPS 27935
2002 06 11.22828 16 09 38.70 -07 19 27.4 20.4   644 – Palomar Mountain/NEAT MPS 57126
2002 06 11.30156 16 09 35.02 -07 19 26.2 20.2   644 – Palomar Mountain/NEAT MPS 57126
2002 06 11.36963 16 09 31.62 -07 19 24.9 20.5   644 – Palomar Mountain/NEAT MPS 57126
2002 06 21.00358 16 02 18.07 -07 22 16.7 20.5   950 – La Palma MPS 57126
2002 06 21.00941 16 02 17.84 -07 22 16.8 20.5   950 – La Palma MPS 57126
2002 06 21.01536 16 02 17.60 -07 22 17.2 20.5   950 – La Palma MPS 57126
2003 08 05.28581 21 04 24.34 -13 06 31.2 19.7   704 – Lincoln Laboratory ETS, New Mexico MPS 82650
